Wind_Speed
19 14 13 15 15 18 19 21 27 31 32 33 34 28 26 25 24 24 23 21 19 17 14 12 12 10 11
18 15 17 14 14 13 14 20 20 27 28 31 30 27 27 25 26 26 25 23 20 18 16 15 14 11 12
21 18 15 15 16 16 15 16 19 23 26 27 28 27 26 25 26 26 26 24 21 19 18 17 14 14 12
20 18 14 12 15 11 13 17 16 19 22 25 26 27 26 26 26 27 26 23 21 20 18 15 13 15 14
19 18 17 12 15 16 17 12 15 16 18 22 24 23 25 25 26 27 26 24 21 20 16 14 14 15 15
20 19 19 20 19 19 14 9 8 19 18 19 23 23 27 28 29 27 25 23 21 18 15 14 16 17 16
24 24 18 23 17 17 18 14 12 12 16 11 21 23 29 28 27 26 24 21 19 17 16 16 17 17 16
23 23 23 14 18 17 16 14 16 16 16 10 16 21 25 24 24 25 23 22 21 20 17 16 17 19 19
25 22 20 16 16 16 15 11 10 11 19 12 11 15 17 20 22 23 22 22 21 18 15 15 18 18 19
23 23 22 21 21 20 20 20 10 5 16 18 13 11 4 11 15 19 22 22 19 15 14 17 17 15 14
20 20 20 19 19 19 18 19 20 14 10 22 14 15 6 5 11 15 16 15 11 13 18 17 16 15 14
17 17 17 17 18 17 16 16 16 16 11 21 8 17 12 7 4 10 13 11 13 14 13 14 14 14 14
15 15 15 15 14 12 11 10 9 9 13 19 13 17 15 9 7 8 8 12 14 13 12 12 11 12 13
10 11 11 12 12 11 11 11 10 10 12 13 11 13 14 9 9 11 11 6 12 11 10 11 11 11 12
8 9 10 11 12 11 11 13 7 9 9 10 11 12 10 9 8 9 10 10 10 9 9 10 10 10 10
7 8 10 13 13 12 11 12 9 11 12 12 11 9 6 7 11 11 11 11 10 10 10 9 10 6 8
7 8 9 11 13 12 11 12 9 11 12 14 14 9 7 4 4 13 10 10 8 8 9 10 12 11 10
Wind_Direction
250 247 242 249 253 250 236 239 245 245 244 243 239 237 245 243 248 247 245 245 252 256 258 256 261 274 284
232 233 241 244 241 242 240 238 242 248 247 247 249 242 245 244 245 245 244 245 247 252 253 260 265 274 281
244 239 236 236 241 245 239 245 246 248 246 244 244 245 244 242 242 245 242 241 245 249 257 261 266 273 280
233 233 229 234 232 233 243 245 244 246 241 240 240 239 239 239 241 239 240 242 244 253 258 259 269 272 278
220 221 223 220 225 236 236 238 243 233 232 233 230 231 232 235 236 237 238 238 248 253 251 254 260 265 270
218 215 222 225 231 223 224 210 237 242 226 229 228 223 230 231 233 237 237 241 250 245 250 249 257 261 266
214 217 222 230 227 226 223 223 229 235 209 220 229 221 232 233 237 237 238 242 238 239 240 245 256 256 264
233 240 241 239 238 246 240 229 231 240 220 209 231 225 234 235 232 232 235 240 233 234 238 249 248 257 266
239 243 238 242 247 233 226 202 224 226 221 215 217 217 227 234 231 225 225 227 231 241 238 239 247 261 273
233 237 240 243 240 241 246 225 212 224 227 200 199 190 194 223 218 215 218 226 236 227 232 235 248 260 274
240 237 237 233 234 231 237 239 227 223 223 196 194 189 187 164 208 211 215 219 208 214 227 241 251 264 273
224 221 218 217 217 221 224 227 232 238 232 201 203 192 178 161 176 200 205 207 213 225 234 245 257 264 268
207 207 210 210 204 202 203 207 214 210 200 202 211 198 196 174 166 179 175 212 217 224 236 251 253 268 276
209 204 200 194 193 196 187 183 177 174 185 197 204 196 189 188 187 176 192 186 210 226 233 256 264 265 264
198 198 194 193 195 197 198 183 180 181 179 187 193 192 193 203 187 192 197 212 225 233 249 267 271 259 259
187 194 194 196 198 197 201 197 194 189 185 185 177 171 188 213 211 201 207 212 220 228 246 270 280 261 278
194 197 205 206 201 205 206 201 197 194 195 193 187 182 194 220 232 217 214 213 219 234 258 259 272 281 287
Height
852 854 854 854 855 855 857 859 859 862 863 866 867 869 872 874 876 878 879 880 881 881 881 882 883 881 882
846 849 850 850 851 851 851 852 853 854 858 859 862 863 866 868 870 871 873 875 876 877 877 878 878 877 877
840 843 844 844 844 845 846 846 847 848 850 852 854 857 860 862 865 866 868 869 871 872 873 873 873 872 873
835 837 839 839 839 841 842 841 842 842 844 847 848 850 853 856 858 861 862 864 866 868 867 868 868 869 868
828 829 832 833 833 834 835 837 836 838 838 840 841 844 847 850 852 855 857 859 861 862 863 864 864 864 864
820 822 823 825 827 828 830 831 834 831 833 834 836 836 840 843 845 848 852 854 856 857 858 860 861 861 860
813 813 815 818 822 824 824 824 825 826 828 830 830 832 833 836 839 843 846 849 850 852 854 855 856 857 856
808 809 810 814 815 817 818 820 820 821 823 824 825 828 830 832 834 837 840 843 845 847 848 850 851 851 851
802 804 806 808 810 813 813 815 816 816 817 819 821 823 825 827 828 831 834 836 839 841 844 846 847 847 847
796 798 799 802 805 806 808 809 811 812 812 816 817 819 823 822 823 825 828 831 834 837 840 841 842 842 842
791 792 795 797 799 800 802 804 805 806 807 810 812 815 817 819 821 823 825 827 831 834 835 836 838 839 838
786 788 790 792 795 796 798 800 801 804 805 807 808 810 812 817 819 820 823 825 827 830 831 832 833 833 833
783 785 787 790 791 793 796 797 800 801 803 804 806 808 811 812 815 819 821 822 824 826 827 827 827 828 828
782 785 786 788 790 792 794 796 799 801 802 804 806 807 809 812 813 815 818 819 820 822 822 823 823 823 822
782 783 785 787 789 792 794 796 797 799 802 803 805 807 809 812 813 814 815 817 818 819 819 819 819 819 818
782 783 785 787 790 792 794 794 796 798 799 802 804 807 810 811 811 810 812 813 813 815 816 815 814 815 814
782 783 785 787 789 790 792 793 796 797 799 801 803 806 809 809 809 809 810 810 812 813 813 813 812 812 810